Location: Sternwarte Stuttgart
(48.7670°N, 9.1830°E)
Time: 12:26:05
(UTC+01:00)

USA 234 - Pass Details

Date: 24 January 2019
Orbit: 1102 x 1106 km, 123.0° (Epoch: 14 February)

Event Time Altitude Azimuth Distance (km) Brightness Sun altitude
Rises 07:08:56 0° 55° (NE) 3,929 6.7 -9.0°
Reaches altitude 10° 07:11:30 10° 60° (ENE) 2,968 6.2 -8.6°
Maximum altitude 07:17:53 53° 137° (SE) 1,333 4.2 -7.6°
Drops below altitude 10° 07:24:14 10° 213° (SSW) 2,952 5.4 -6.7°
Sets 07:26:47 0° 218° (SW) 3,907 6.0 -6.3°
